#timestamp,LO_Frequency,Hit,StdDev 
1553608815.2,286046996.6,N
1553608835.0,286046996.6,N
1553608835.9,286046996.6,N
1553608855.8,286046999.2,N
1553608875.6,286046997.0,N
1553608895.5,286046998.0,N
1553608915.3,286046995.6,N
1553608935.1,286046996.0,N
1553608955.9,286046995.9,N
1553608975.7,286046997.8,N
1553608995.6,286046998.6,N
1553609015.4,286047002.2,N
1553609035.2,286047000.1,N
1553609055.1,286047002.2,N
1553609056.0,286047002.2,N
1553609075.8,286046999.9,N
1553609095.6,286046998.5,N
1553609115.5,286046999.1,N
1553609135.3,286046999.1,N
1553609155.2,286046998.9,N
1553609175.9,286046999.0,N
1553609195.7,286046999.5,N
1553609215.6,286046996.6,N
1553609235.4,286046999.6,N
1553609255.2,286046998.9,N
1553609275.1,286047000.8,N
1553609276.0,286047000.8,N
1553609295.8,286047000.7,N
1553609315.7,286047001.2,N
1553609335.5,286047000.7,N
1553609355.3,286046999.4,N
1553609375.2,286046998.3,N
1553609395.0,286046999.3,N
1553609395.9,286046999.3,N
1553609415.8,286046999.5,N
1553609435.6,286046999.1,N
1553609455.4,286046997.0,N
1553609475.3,286046997.4,N
1553609495.1,286046997.3,N
1553609515.8,286046996.1,N
1553609535.7,286046994.0,Y
1553609555.5,286046996.0,P
1553609575.4,286046994.7,P
1553609595.2,286046993.9,P
1553609615.0,286046996.4,N
1553609615.9,286046996.4,N
1553609635.8,286046996.0,N
1553609655.6,286046993.5,Y
1553609675.5,286046998.4,P
1553609695.3,286047000.9,N
1553609715.1,286047001.8,N
1553609735.9,286047002.9,N
1553609755.7,286047005.9,N
1553609775.5,286047005.4,N
1553609795.4,286047003.4,N
1553609815.2,286047001.5,N
1553609835.1,286047002.1,N
1553609836.0,286047002.1,N
1553609855.8,286047000.1,N
1553609875.6,286046998.8,N
1553609895.5,286046999.5,N
1553609915.3,286046997.3,N
1553609935.1,286046998.0,N
1553609955.9,286046997.9,N
1553609975.7,286046995.3,N
1553609995.6,286046995.8,N
1553610015.4,286046997.4,N
1553610035.2,286046995.3,N
1553610055.1,286046998.0,N
1553610056.0,286046998.0,N
1553610075.8,286046994.9,N
1553610095.7,286046998.0,N
1553610115.5,286046995.1,N
1553610135.3,286046995.5,N
1553610155.2,286046993.7,N
1553610175.0,286046995.3,N
1553610175.9,286046995.3,N
1553610195.7,286046996.1,N
1553610215.6,286046996.3,N
1553610235.4,286046996.0,N
1553610255.3,286046995.4,N
1553610275.1,286046996.2,N
1553610276.0,286046996.2,N
1553610295.8,286046995.5,N
1553610315.7,286046997.8,N
1553610335.5,286046997.6,N
1553610355.4,286046997.2,N
1553610375.2,286046997.4,N
1553610395.0,286046998.0,N
1553610395.9,286046998.0,N
1553610415.8,286046997.4,N
1553610435.6,286046996.7,N
1553610455.4,286046997.3,N
1553610475.3,286046995.2,Y
1553610495.1,286047000.4,P
1553610515.9,286047000.1,N
1553610535.7,286046999.7,N
1553610555.5,286047000.3,N
1553610605.4,286047001.0,E
1553610615.3,286047002.3,N
1553610635.2,286047000.8,P
1553610655.0,286046999.5,N
1553610655.9,286046999.5,N
1553610675.7,286046999.4,N
1553610695.6,286046998.0,N
1553610715.4,286046995.3,Y
1553610735.3,286046995.4,P
1553610755.1,286046995.4,N
1553610775.8,286046997.3,N
1553610795.7,286046999.1,N
1553610815.5,286046998.3,N
1553610835.4,286046998.1,N
1553610855.2,286046999.2,N
1553610875.0,286046999.2,N
1553610875.9,286046999.2,N
1553610895.8,286046996.8,N
1553610915.6,286046999.1,N
1553610935.4,286046998.3,N
1553610955.3,286046999.0,N
1553610975.1,286046998.2,N
1553610995.9,286047000.0,N
1553611015.7,286047002.4,N
1553611035.5,286047001.8,N
1553611055.4,286047001.5,N
1553611075.2,286047005.5,N
1553611095.1,286047005.6,N
1553611096.0,286047005.6,N
1553611115.8,286047005.6,N
1553611135.6,286047005.9,N
1553611155.5,286047003.4,N
1553611175.3,286047004.4,N
1553611195.1,286047001.3,N
1553611215.9,286047003.9,N
1553611235.7,286047004.0,N
1553611255.6,286047005.6,N
1553611275.4,286047005.1,N
1553611295.2,286047004.9,N
1553611315.1,286047002.9,N
1553611316.0,286047002.9,N
1553611335.8,286047006.0,N
1553611355.6,286047003.0,N
1553611375.5,286047005.9,N
1553611395.3,286047002.1,N
1553611415.2,286047002.3,N
1553611435.9,286047002.0,N
1553611455.7,286047001.8,N
1553611475.6,286047002.5,N
1553611495.4,286047002.0,N
1553611515.3,286047001.6,N
1553611535.1,286047004.4,N
1553611536.0,286047004.4,N
1553611555.8,286047003.9,N
1553611575.7,286047004.2,N
1553611595.5,286047001.6,N
1553611615.3,286046999.9,N
1553611635.2,286047000.7,N
1553611655.0,286046998.3,N
1553611655.9,286046998.3,N
1553611675.8,286047001.9,N
1553611695.6,286046999.8,N
1553611715.4,286047000.0,N
1553611735.3,286047000.5,N
1553611755.1,286047000.0,N
1553611775.8,286047000.3,N
1553611795.7,286046999.9,N
1553611815.5,286047000.8,N
1553611835.4,286047000.7,N
1553611855.2,286046998.7,N
1553611875.0,286046996.7,N
1553611875.9,286046996.7,N
1553611895.8,286046997.3,N
1553611915.6,286046995.3,N
1553611935.5,286046993.9,N
1553611955.3,286046993.3,N
1553611975.1,286046996.4,N
1553611995.9,286046996.2,N
1553612015.7,286046997.9,N
1553612035.5,286046995.9,N
1553612055.4,286046996.0,N
1553612075.2,286046996.1,N
1553612095.1,286046994.5,N
1553612096.0,286046994.5,N
1553612115.8,286046994.7,N
1553612135.6,286046991.8,Y
1553612155.5,286046997.6,P
1553612175.3,286046998.8,P
1553612195.2,286046998.7,N
1553612215.9,286047001.2,N
1553612235.7,286047000.9,N
1553612255.6,286047004.3,Y
1553612275.4,286047001.7,P
1553612295.2,286047003.8,N
1553612315.1,286047004.0,N
1553612316.0,286047004.0,N
1553612335.8,286047003.2,N
1553612355.7,286047005.5,Y
1553612375.5,286047001.5,P
1553612395.3,286047001.8,P
